Вернуться в каталог

STARLINK-35175

АктивенСвязьVLEO
NORAD 65929·PAYLOAD·🇺🇸 United States

Запущен Oct 8, 2025 с Vandenberg Space Force Base

Loading…

Ближайшие Пролёты (ближайшие 24 часа)

TLE

СвежийSource: CelesTrak SupGP

Эпоха: Sep 14, 2026, 21:25 UTC

1 65929C 25225V   26257.89284722  .00003645  00000+0  10770-3 0  2573
2 65929  53.1602   5.6537 0001208  73.3491 258.4422 15.34384806    14

Отслеживайте STARLINK-35175 в реальном времени с AllMySat

Download on the App Store